This is the latest recevied weather packets stored in our database for station/object M0UPS-13. If no packets are shown the sender has not sent any weather packets the latest 10 day(s).
| Time | Temp. | Humidity | Pressure | Rain* | Wind** | Luminosity | Snow |
|---|---|---|---|---|---|---|---|
| 1777268703 | 6.11° C | 94% | 1025.1 hPa | 0 mm | - | 27 W/m² | - |
| 1777268402 | 6.11° C | 94% | 1025.2 hPa | 0 mm | - | 28 W/m² | - |
| 1777268103 | 6.11° C | 94% | 1025.2 hPa | 0 mm | - | 27 W/m² | - |
| 1777267802 | 6.11° C | 95% | 1025.1 hPa | 0 mm | - | 25 W/m² | - |
| 1777267502 | 5.56° C | 94% | 1025 hPa | 0 mm | - | 24 W/m² | - |
| 1777267202 | 5.56° C | 94% | 1025.1 hPa | 0 mm | - | 22 W/m² | - |
| 1777266903 | 5.56° C | 94% | 1025 hPa | 0 mm | - | 19 W/m² | - |
| 1777266602 | 5.56° C | 94% | 1025 hPa | 0 mm | - | 16 W/m² | - |
| 1777266302 | 5.56° C | 94% | 1024.9 hPa | 0 mm | - | 13 W/m² | - |
| 1777266002 | 5.56° C | 94% | 1024.7 hPa | 0 mm | - | 9 W/m² | - |
| 1777265703 | 5.56° C | 94% | 1024.8 hPa | 0 mm | - | 7 W/m² | - |
| 1777265402 | 5° C | 93% | 1024.7 hPa | 0 mm | - | 4 W/m² | - |
| 1777265102 | 5° C | 93% | 1024.9 hPa | 0 mm | - | 3 W/m² | - |
| 1777264802 | 5° C | 93% | 1024.9 hPa | 0 mm | - | 2 W/m² | - |
| 1777264503 | 5.56° C | 93% | 1024.8 hPa | 0 mm | - | 1 W/m² | - |
| 1777264202 | 5.56° C | 93% | 1024.7 hPa | 0 mm | - | 1 W/m² | - |
| 1777263902 | 5.56° C | 92% | 1024.8 hPa | 0 mm | - | 0 W/m² | - |
| 1777263602 | 5.56° C | 92% | 1024.7 hPa | 0 mm | - | 0 W/m² | - |
| 1777263302 | 5.56° C | 92% | 1024.7 hPa | 0 mm | - | 0 W/m² | - |
| 1777263002 | 5.56° C | 92% | 1024.7 hPa | 0 mm | - | 0 W/m² | - |
| 1777262702 | 6.11° C | 91% | 1024.9 hPa | 0 mm | - | 0 W/m² | - |
| 1777262402 | 6.11° C | 91% | 1024.8 hPa | 0 mm | - | 0 W/m² | - |
| 1777262102 | 6.67° C | 91% | 1024.8 hPa | 0 mm | - | 0 W/m² | - |
| 1777261802 | 6.67° C | 91% | 1025.1 hPa | 0 mm | - | 0 W/m² | - |
| 1777261503 | 6.67° C | 91% | 1024.9 hPa | 0 mm | - | 0 W/m² | - |
* Rain latest hour (hover to see other rain measurements)
** Current wind speed in m/s (hover to see current wind gust speed)